Location: Borotín
(49.5055°N, 14.6142°E)
Time: 10:48:16
(UTC+00:00)

Cosmos 2333 Rocket - Pass Details

Date: 27 May 2022
Orbit: 839 x 863 km, 70.8° (Epoch: 26 June)

Event Time Altitude Azimuth Distance (km) Brightness Sun altitude
Exits shadow 00:07:16 - 255° (WSW) 2,694 4.5 -17.6°
Reaches altitude 10° 00:08:01 10° 259° (W) 2,461 4.4 -17.6°
Maximum altitude 00:12:45 27° 317° (NW) 1,582 3.9 -17.3°
Drops below altitude 10° 00:17:32 10° 14° (NNE) 2,482 6.0 -17.1°
Sets 00:20:24 0° 26° (NNE) 3,425 7.1 -16.9°
